Location: *
(46.1006°N, 1.8394°E)
Time: 13:32:38
(UTC+00:00)

NOSS 3-3 (C) - Pass Details

Date: 20 September 2019
Orbit: 849 x 1364 km, 63.4° (Epoch: 08 October)

Event Time Altitude Azimuth Distance (km) Brightness Sun altitude
Rises 18:29:43 0° 227° (SW) 3,466 7.5 -6.8°
Reaches altitude 10° 18:32:08 10° 231° (SW) 2,570 6.9 -7.2°
Maximum altitude 18:38:03 66° 313° (NW) 1,050 4.5 -8.2°
Drops below altitude 10° 18:44:46 10° 36° (NE) 2,892 6.2 -9.4°
Sets 18:47:37 0° 39° (NE) 3,932 6.9 -9.9°
